User: anonymous   Login
Location: Caltech
(34.1382°N, 118.1253°W)
Time: 00:28:57
(UTC-07:00)
Language:

IRS-1A Rocket - Orbit

View from above orbital plane
View from above orbital plane
View from above satellite
View from above satellite

Ground track
Ground track

The orbit data is extracted from the following two-line orbital elements,

1 18961U 88021B   16152.56094442 -.00000065  00000-0 -12671-4 0  9997
2 18961  99.2871 147.4180 0053481 192.3383 274.0539 14.00506387441999
Epoch (UTC): 31 May 2016 13:27:45
Eccentricity: 0.0053481
inclination: 99.2871°
perigee height: 853 km
apogee height: 931 km
right ascension of ascending node: 147.4180°
argument of perigee: 192.3383°
revolutions per day: 14.00506387
mean anomaly at epoch: 274.0539°
orbit number at epoch: 44199

The dashed part of the orbit path shows where the satellite is in the earth's shadow,  

DLR